This demonstration page uses our WeatherBlox Daily Observations layout. Learn more.

Left ArrowRight Arrow

39.01783, -85.05884

Hourly Observations for August 31, 2016

Temp ( °F °C ) Dew Point ( °F °C ) Humidity (%) Winds ( mph kmh ) Pressure ( in mb ) Visibility ( mi km ) Precip ( " mm )
12:52 am 00:52 Mostly Cloudy 73 22.8 68 20 84 84 N 10 17 30.04 1017 10 16 0.00 0.00
1:52 am 01:52 Mostly Cloudy 72 22.2 68 20 87 87 N 3 6 30.02 1017 10 16 0.00 0.00
2:52 am 02:52 Mostly Cloudy 72 22.2 68 20 87 87 Calm 30.01 1016 10 16 0.00 0.00
3:52 am 03:52 Mostly Cloudy 68 20 68 20 100 100 S 3 6 29.99 1016 7 11 0.00 0.00
4:52 am 04:52 Mostly Cloudy 71 21.7 69 20.6 94 94 Calm 29.99 1016 10 16 0.00 0.00
5:52 am 05:52 Mostly Cloudy 72 22.2 69 20.6 91 91 N 3 6 29.98 1015 10 16 0.00 0.00
6:52 am 06:52 Mostly Cloudy 70 21.1 68 20 93 93 Calm 29.99 1016 10 16 0.00 0.00
7:52 am 07:52 Mostly Cloudy 71 21.7 70 21.1 96 96 NNW 3 6 30.00 1016 9 14 0.00 0.00
8:52 am 08:52 Mostly Cloudy 72 22.2 71 21.7 97 97 N 6 9 30.00 1016 10 16 0.00 0.00
9:52 am 09:52 Partly Cloudy 76 24.4 71 21.7 85 85 N 6 9 30.00 1016 10 16 0.00 0.00
10:52 am 10:52 Mostly Sunny 81 27.2 72 22.2 74 74 VRB 3 6 29.99 1016 10 16 0.00 0.00
11:52 am 11:52 Mostly Sunny 82 27.8 70 21.1 67 67 WNW 5 7 29.98 1015 10 16 0.00 0.00
12:52 pm 12:52 Partly Cloudy 84 28.9 71 21.7 65 65 W 9 15 29.96 1015 10 16 0.00 0.00
1:52 pm 13:52 Mostly Cloudy 84 28.9 71 21.7 65 65 NNW 6 9 29.95 1014 10 16 0.00 0.00
2:52 pm 14:52 Mostly Cloudy 86 30 71 21.7 61 61 WNW 10 17 29.93 1014 10 16 0.00 0.00
3:52 pm 15:52 Mostly Cloudy 86 30 69 20.6 57 57 NW 8 13 29.91 1013 10 16 0.00 0.00
4:52 pm 16:52 Mostly Cloudy 80 26.7 69 20.6 69 69 NNW 17 28 29.91 1013 10 16 0.00 0.00
5:52 pm 17:52 Mostly Cloudy 77 25 67 19.4 71 71 NNW 10 17 29.92 1013 10 16 0.00 0.03
6:52 pm 18:52 Cloudy 77 25 69 20.6 77 77 NNW 7 11 29.92 1013 10 16 0.00 0.03
7:52 pm 19:52 Cloudy 75 23.9 71 21.7 88 88 VRB 3 6 29.93 1013 10 16 0.00 0.00
8:52 pm 20:52 Cloudy 74 23.3 71 21.7 91 91 Calm 29.93 1014 10 16 0.00 0.00
9:52 pm 21:52 Cloudy 74 23.3 70 21.1 88 88 NNW 6 9 29.95 1014 10 16 0.00 0.00
10:52 pm 22:52 Mostly Cloudy 72 22.2 70 21.1 94 94 NNW 3 6 29.95 1014 10 16 0.00 0.00
11:52 pm 23:52 Mostly Cloudy 72 22.2 69 20.6 91 91 NNW 5 7 29.95 1014 9 14 0.00 0.00

Powered by AerisWeather